Probability
3 3 3 6 0 0 0 0 0 3 3 0 0 0 0 0 0 0 0 0 0 0 0 0 0 0 0 0 0 0 0 3 6 3 3 10 10 16
3 3 6 6 3 0 0 0 0 0 0 0 0 0 0 0 0 0 0 0 0 0 0 0 0 0 0 0 0 0 0 0 0 0 0 3 3 3
3 3 6 6 6 0 0 0 0 0 0 0 0 0 0 0 0 0 0 0 0 0 0 0 0 0 0 0 0 0 0 0 0 0 0 0 0 0
3 3 6 10 6 3 0 0 0 0 0 0 3 3 3 3 3 0 0 0 0 0 0 0 0 0 0 0 0 0 0 0 0 0 0 0 0 0
13 13 13 13 13 13 3 3 3 0 0 0 6 3 3 0 0 0 0 0 0 0 0 0 0 0 0 0 0 0 0 0 0 0 0 0 0 0
16 13 13 13 13 13 10 13 6 13 3 3 6 3 3 0 0 0 0 0 0 0 0 0 0 0 0 0 0 0 0 0 0 0 0 0 0 0
16 13 13 13 13 10 10 13 13 13 10 10 3 3 3 3 0 0 0 0 0 0 0 0 0 0 0 0 0 0 0 0 0 0 0 0 0 0
16 16 13 13 6 3 0 3 6 13 13 10 6 6 3 3 3 0 0 0 3 0 0 0 0 0 0 0 0 0 0 0 0 0 0 0 0 0
16 16 16 16 13 13 10 3 0 0 0 13 13 6 6 3 3 0 0 0 0 3 0 0 0 0 0 0 0 0 0 0 0 0 0 0 0 0
6 10 10 10 10 13 16 10 10 10 3 0 6 6 6 6 6 3 0 0 0 0 0 0 3 0 0 0 0 0 0 0 0 0 0 0 0 0
6 6 6 10 6 3 0 6 6 10 6 0 0 0 0 0 0 0 0 0 0 0 0 0 0 0 0 0 0 0 0 0 0 0 0 0 0 0
6 6 3 6 6 0 0 3 10 10 10 3 0 0 0 0 0 0 0 0 0 0 0 0 3 3 0 0 0 0 0 0 0 0 0 0 0 0
6 6 6 0 0 0 0 0 3 3 6 3 0 0 0 0 0 0 0 0 0 0 0 0 3 3 3 3 0 0 0 0 0 0 0 0 0 0
6 6 6 0 0 0 0 0 0 0 0 3 0 0 0 0 0 0 0 0 0 0 0 0 0 0 0 0 0 0 0 0 0 0 0 0 0 0
6 3 3 0 0 0 0 0 0 0 0 3 3 0 0 0 0 0 0 3 3 0 0 0 0 0 0 0 0 0 0 0 0 0 0 0 0 0
0 0 0 0 0 0 0 0 0 0 0 3 3 0 0 0 0 0 0 0 0 0 0 3 0 0 0 0 0 3 0 0 0 0 0 0 0 0
0 0 0 0 0 0 0 0 0 0 0 0 0 0 0 0 0 0 0 0 0 0 0 0 3 0 0 0 0 0 0 0 0 0 0 0 0 0
0 0 0 0 0 0 0 0 0 0 0 0 0 0 0 0 0 0 0 0 0 0 0 0 0 0 0 0 0 0 0 0 0 0 0 0 0 0
0 0 0 0 0 0 0 0 0 0 0 0 0 0 0 0 0 0 0 0 0 0 0 0 0 0 0 0 0 0 0 0 0 0 0 0 0 0
0 0 3 3 0 0 0 0 0 0 0 0 0 0 0 0 0 0 0 0 0 0 0 0 0 0 0 0 0 0 0 0 0 0 0 0 0 0
0 0 0 3 0 0 0 0 0 0 0 0 0 0 0 0 0 0 0 0 0 0 0 0 0 0 0 0 0 0 0 0 0 0 0 0 0 0
0 0 0 0 0 0 0 0 0 0 0 0 0 0 0 0 0 0 0 0 0 0 0 0 0 0 0 0 0 0 0 0 0 0 0 0 0 0
0 0 0 0 0 0 0 0 0 0 0 0 0 0 0 0 0 0 0 0 0 0 0 0 0 0 0 0 0 0 0 0 0 0 0 0 0 0
Height
5871 5870 5869 5867 5866 5864 5862 5861 5860 5859 5857 5856 5855 5853 5852 5851 5850 5848 5847 5846 5845 5844 5843 5842 5841 5840 5840 5839 5838 5838 5838 5837 5837 5837 5837 5836 5837 5837
5867 5866 5865 5863 5862 5860 5858 5857 5856 5855 5853 5852 5850 5849 5848 5846 5845 5844 5842 5841 5840 5839 5838 5837 5836 5835 5834 5834 5833 5833 5832 5832 5832 5831 5831 5831 5831 5831
5863 5861 5860 5859 5857 5856 5854 5853 5852 5850 5849 5848 5846 5845 5843 5841 5840 5839 5837 5836 5835 5833 5832 5831 5830 5829 5829 5828 5827 5827 5826 5826 5826 5826 5825 5825 5825 5825
5858 5857 5855 5854 5853 5851 5850 5848 5847 5845 5844 5843 5841 5839 5838 5836 5835 5833 5831 5830 5829 5827 5826 5826 5825 5824 5823 5822 5821 5821 5820 5820 5820 5819 5819 5819 5819 5819
5854 5852 5850 5849 5847 5846 5844 5843 5841 5840 5839 5837 5836 5834 5832 5830 5829 5827 5826 5824 5822 5821 5820 5819 5818 5817 5817 5816 5815 5815 5814 5814 5813 5813 5813 5813 5813 5812
5848 5847 5845 5843 5842 5840 5839 5837 5835 5834 5833 5831 5829 5828 5826 5824 5823 5821 5819 5818 5816 5815 5814 5813 5812 5811 5810 5809 5809 5808 5807 5807 5807 5806 5806 5806 5806 5805
5843 5841 5840 5838 5836 5834 5833 5831 5829 5828 5826 5825 5823 5822 5820 5818 5816 5814 5813 5811 5810 5809 5807 5806 5804 5803 5803 5802 5801 5801 5800 5800 5799 5799 5799 5798 5798 5798
5837 5835 5833 5832 5830 5828 5827 5825 5823 5821 5819 5818 5816 5815 5813 5811 5809 5807 5806 5804 5803 5802 5800 5798 5797 5796 5795 5794 5794 5793 5792 5792 5791 5791 5791 5790 5790 5790
5831 5829 5827 5825 5823 5822 5820 5818 5816 5814 5813 5811 5809 5807 5805 5803 5801 5800 5798 5797 5795 5794 5792 5791 5789 5788 5787 5786 5785 5784 5784 5783 5783 5782 5782 5782 5782 5782
5824 5822 5820 5818 5816 5815 5813 5811 5809 5807 5805 5804 5802 5799 5797 5795 5793 5792 5790 5788 5787 5785 5783 5783 5781 5780 5778 5777 5776 5775 5775 5774 5774 5773 5773 5773 5773 5773
5817 5815 5813 5811 5809 5807 5806 5804 5802 5800 5798 5796 5793 5791 5789 5787 5785 5783 5781 5780 5778 5777 5775 5773 5772 5771 5770 5769 5767 5766 5765 5765 5764 5764 5764 5763 5763 5763
5810 5808 5805 5804 5802 5800 5798 5797 5795 5793 5790 5788 5786 5783 5781 5779 5776 5775 5773 5771 5769 5768 5766 5764 5763 5761 5761 5760 5758 5757 5756 5755 5754 5754 5754 5754 5753 5753
5802 5800 5798 5796 5794 5793 5791 5789 5787 5785 5783 5780 5778 5775 5773 5771 5768 5766 5764 5762 5760 5758 5756 5754 5753 5751 5751 5751 5749 5748 5746 5745 5745 5744 5744 5744 5743 5743
5795 5793 5791 5789 5787 5785 5783 5781 5779 5777 5775 5772 5770 5768 5765 5762 5760 5757 5755 5753 5751 5749 5747 5745 5743 5742 5740 5740 5739 5738 5737 5736 5735 5734 5734 5733 5733 5733
5787 5785 5783 5781 5778 5776 5774 5772 5770 5768 5766 5764 5761 5759 5756 5754 5751 5749 5746 5744 5741 5739 5737 5735 5733 5732 5730 5729 5728 5728 5727 5726 5725 5724 5724 5723 5723 5723
5779 5777 5774 5772 5770 5768 5766 5763 5761 5759 5757 5755 5752 5750 5747 5744 5742 5739 5737 5734 5732 5729 5727 5725 5723 5721 5720 5718 5717 5716 5716 5715 5715 5714 5714 5713 5713 5713
5771 5769 5766 5764 5762 5759 5757 5754 5752 5750 5747 5745 5743 5740 5737 5735 5732 5729 5727 5724 5722 5720 5717 5715 5712 5711 5709 5708 5707 5706 5705 5704 5704 5703 5703 5703 5703 5703
5762 5760 5757 5755 5753 5750 5748 5745 5743 5740 5738 5735 5732 5730 5727 5724 5722 5719 5716 5714 5711 5709 5706 5704 5702 5700 5699 5697 5696 5695 5694 5693 5693 5692 5692 5692 5692 5692
5753 5750 5748 5745 5743 5740 5738 5735 5732 5730 5727 5724 5722 5719 5716 5713 5711 5708 5705 5703 5700 5697 5695 5693 5691 5689 5688 5687 5686 5684 5683 5682 5681 5681 5680 5680 5680 5680
5743 5740 5738 5735 5732 5730 5727 5725 5722 5719 5716 5713 5710 5707 5704 5702 5699 5696 5693 5691 5688 5686 5683 5681 5679 5677 5676 5675 5674 5673 5671 5670 5669 5669 5669 5668 5668 5668
5732 5730 5727 5724 5721 5719 5716 5713 5710 5707 5704 5701 5699 5696 5692 5689 5687 5684 5681 5678 5676 5674 5672 5670 5667 5665 5663 5663 5662 5661 5659 5658 5657 5657 5656 5656 5656 5656
5722 5719 5716 5713 5710 5707 5704 5701 5698 5695 5692 5689 5686 5683 5680 5677 5674 5672 5669 5667 5664 5662 5660 5658 5656 5654 5652 5651 5650 5649 5648 5646 5645 5644 5644 5644 5644 5644
5711 5708 5705 5702 5699 5696 5693 5689 5686 5683 5680 5677 5674 5671 5668 5665 5662 5660 5657 5655 5652 5650 5648 5646 5644 5642 5640 5638 5637 5636 5635 5634 5633 5633 5632 5631 5632 5632
Wind_Speed
15 15 15 16 16 16 16 16 16 16 16 16 16 17 17 18 18 18 18 18 18 18 18 18 18 18 18 18 19 20 19 19 19 20 19 20 21 21
16 17 16 16 17 17 17 17 17 17 17 17 17 18 18 19 19 19 19 19 20 19 18 18 19 19 20 19 20 20 20 20 20 20 20 21 21 22
17 17 17 17 18 18 17 17 18 18 18 18 19 19 19 20 20 21 21 21 21 22 21 21 21 21 20 21 21 21 21 21 21 21 21 21 21 21
18 17 17 18 18 19 19 19 19 19 19 20 21 21 21 21 21 22 22 22 23 23 23 23 22 22 22 22 22 22 22 22 22 22 22 22 22 22
18 18 19 19 20 20 21 21 21 21 21 22 22 22 23 23 23 23 23 23 23 23 23 24 24 24 24 24 24 24 23 23 23 23 23 23 23 23
20 20 21 21 22 22 22 22 22 22 23 23 23 24 24 24 24 24 24 24 24 24 24 25 25 25 25 25 25 25 25 25 25 24 24 25 25 25
21 21 21 22 22 23 23 23 24 24 24 25 25 25 26 26 26 25 25 26 26 26 27 27 27 26 26 26 26 26 26 26 26 26 26 26 25 25
23 23 23 23 23 24 24 25 25 25 25 26 26 26 27 27 27 27 27 27 27 27 28 28 28 27 27 27 27 27 28 28 28 28 27 27 27 27
24 24 25 25 25 25 25 26 26 26 26 26 26 27 28 28 28 28 28 29 28 28 28 28 28 28 28 28 28 28 28 29 29 29 29 29 28 28
25 25 25 26 26 26 26 26 27 27 27 27 28 28 29 29 30 29 29 29 30 30 30 30 30 30 30 30 30 29 29 29 29 29 29 29 29 29
26 25 26 26 27 27 27 27 27 27 27 28 28 29 29 30 30 30 30 30 30 31 32 32 31 31 31 31 32 32 31 31 31 31 31 31 30 30
27 27 27 27 27 27 27 28 28 28 28 29 29 29 29 29 30 30 30 30 31 31 32 32 32 32 32 32 33 33 33 33 33 31 31 31 31 31
27 27 28 28 28 28 28 28 28 28 29 29 29 30 30 30 30 30 30 30 31 31 32 32 32 32 33 32 33 34 34 34 33 33 32 31 31 31
28 28 28 28 29 30 29 29 30 29 29 29 29 30 31 31 31 31 31 32 32 32 32 32 32 33 33 33 33 33 34 34 33 33 33 33 32 32
28 29 29 30 30 30 30 30 30 30 30 30 30 30 31 31 31 31 32 33 33 33 32 32 33 34 34 34 34 34 34 33 33 34 33 33 32 33
28 29 30 30 30 31 32 31 31 31 31 31 32 32 32 32 32 32 33 33 33 33 33 34 34 34 34 34 34 34 34 34 33 33 33 33 33 33
30 30 31 31 32 32 32 32 32 32 32 33 33 33 34 34 33 34 34 34 34 33 33 34 35 35 35 35 34 34 34 34 34 34 34 34 34 34
33 32 33 33 33 33 32 32 32 33 34 35 35 35 35 35 34 35 35 35 35 35 35 35 36 35 34 34 35 34 35 35 35 35 35 35 35 36
34 34 34 35 35 34 34 34 34 35 36 37 37 37 37 37 36 36 36 37 37 37 37 37 37 36 36 35 35 35 35 35 35 35 36 35 35 36
36 36 35 35 35 35 35 35 36 36 37 37 37 38 38 37 37 38 38 38 38 37 37 36 36 37 36 36 35 34 35 35 35 35 35 35 36 36
36 36 36 36 36 35 35 36 37 37 38 37 38 38 38 38 38 38 38 37 38 37 36 36 36 37 36 36 35 35 35 36 36 36 35 35 35 35
36 37 37 37 37 36 36 37 38 38 38 38 39 39 39 39 38 37 37 37 37 37 36 36 37 37 37 37 37 36 35 36 36 36 36 35 35 34
36 37 37 37 38 38 38 38 38 38 38 38 39 39 39 38 38 37 36 36 36 36 36 37 37 37 38 38 37 36 35 35 36 36 35 34 34 34
Wind_Direction
295 293 293 295 297 296 295 294 292 290 289 291 291 292 291 290 288 287 284 283 282 281 280 280 280 279 277 278 279 278 276 275 276 275 275 273 271 269
292 291 291 292 294 295 295 293 293 292 290 291 292 292 290 289 287 287 285 282 280 278 278 279 279 279 278 277 277 278 278 276 275 275 276 275 273 270
292 290 290 290 290 291 292 293 292 291 291 292 294 295 293 290 289 287 284 281 278 277 278 279 278 278 278 277 277 277 277 276 276 276 277 277 276 272
294 291 289 289 289 290 291 291 291 291 291 291 291 292 292 291 292 291 287 284 281 279 279 279 279 278 278 279 277 277 277 275 275 276 277 277 276 276
296 293 291 290 289 290 289 289 288 289 290 291 291 291 291 290 290 289 287 287 285 283 281 280 278 277 277 277 276 275 275 275 275 276 276 276 276 276
298 294 291 290 290 289 289 290 289 289 290 291 290 290 290 290 289 288 287 287 286 283 282 281 279 278 278 277 275 274 273 275 275 276 277 275 275 275
297 296 293 291 289 289 289 290 291 290 290 291 290 289 288 289 289 287 286 286 285 284 282 281 279 277 277 276 275 274 273 274 274 274 275 275 275 274
295 295 293 293 292 291 290 290 291 291 290 290 290 289 289 288 288 286 286 286 285 284 283 281 278 277 277 276 275 274 273 273 273 273 273 273 274 273
295 295 292 291 290 291 291 291 292 292 292 291 291 290 288 287 286 285 285 285 285 284 283 282 279 278 277 277 277 275 274 273 272 272 272 272 272 271
294 293 291 288 288 289 289 291 291 292 293 293 292 291 289 287 286 285 285 284 284 284 283 282 280 279 277 277 277 276 275 275 274 272 271 270 270 270
295 294 292 290 289 289 289 290 293 294 294 294 294 293 291 289 288 288 287 287 285 285 284 283 281 278 277 276 276 276 275 275 274 273 271 270 270 270
293 292 291 290 290 291 289 289 291 292 293 293 294 294 293 292 290 289 289 289 288 287 286 284 282 279 276 276 276 275 275 276 274 272 271 270 270 270
289 290 291 291 292 292 291 290 290 291 291 292 292 293 292 292 291 290 290 290 290 288 286 284 282 279 278 277 276 276 275 276 275 274 271 270 270 269
291 292 293 294 294 294 292 291 290 290 291 291 292 292 292 291 291 291 291 291 291 290 288 286 284 281 279 278 277 275 275 275 276 276 275 273 270 268
294 295 294 295 293 292 292 291 290 289 290 291 292 292 293 293 292 292 292 292 291 290 289 287 285 284 282 280 278 276 275 275 276 275 275 275 272 269
294 294 295 294 294 293 292 291 292 291 291 292 291 291 292 293 293 292 292 291 290 289 289 288 286 285 284 282 280 277 275 275 275 274 274 275 273 271
293 293 293 293 294 294 292 291 291 291 291 292 292 291 291 292 293 293 292 292 291 289 288 288 287 285 284 283 281 278 276 275 274 273 273 274 273 272
292 292 293 293 293 293 293 292 292 291 291 291 291 291 292 293 292 292 291 290 290 288 287 286 285 283 283 282 280 278 277 276 276 275 274 272 272 271
292 293 293 293 293 293 292 291 291 290 291 290 290 291 291 291 291 290 290 289 289 287 286 286 284 283 282 281 280 277 277 276 276 275 275 273 272 271
291 292 293 293 292 292 292 291 291 290 290 290 291 291 291 291 290 290 289 288 288 288 287 286 284 283 282 281 280 279 277 277 275 275 273 273 271 270
291 292 293 294 292 292 292 292 292 292 290 290 291 291 290 290 290 289 289 288 287 287 287 286 284 283 282 281 280 280 280 279 277 275 273 272 271 269
291 292 292 292 292 290 290 291 291 292 291 290 291 291 291 290 289 289 288 288 287 286 286 285 283 283 283 282 281 280 279 279 278 276 274 272 271 269
292 292 292 292 292 292 292 291 291 292 291 291 291 291 290 289 288 288 288 288 287 286 284 283 283 283 283 282 280 279 279 279 277 276 275 272 271 269